START_TIME,STEP,MOV.,M34,t_acc.,L5,t_acc.,L18,t_acc.,L14,t_acc.
1981-08-24 06:06:25.780 ,0,0,0.,12.0,0.,12.0,0.,12.0,0.,12.0
1981-08-24 06:06:37.780 ,0,0,0.,12.0,0.,12.0,0.,12.0,0.,12.0
1981-08-24 06:06:49.780 ,6,1,0.,12.0,0.,12.0,0.,12.0,0.,12.0
1981-08-24 06:07:01.780 ,6,1,0.,12.0,0.,12.0,0.,12.0,0.,12.0
1981-08-24 06:07:13.780 ,5,1,0.,12.0,0.,12.0,0.,12.0,0.,12.0
1981-08-24 06:07:25.780 ,5,1,0.,12.0,0.,12.0,0.,12.0,0.,12.0
1981-08-24 06:07:37.780 ,4,1,0.,12.0,0.,12.0,0.,12.0,0.,12.0
1981-08-24 06:07:49.780 ,4,1,0.,12.0,0.,12.0,0.,12.0,0.,12.0
1981-08-24 06:08:01.780 ,3,1,0.,12.0,0.,12.0,0.,12.0,0.,12.0
1981-08-24 06:08:13.780 ,3,1,0.,12.0,0.,12.0,0.,12.0,0.,12.0
1981-08-24 06:08:25.780 ,2,1,0.,12.0,0.,12.0,0.,12.0,0.,12.0
1981-08-24 06:08:37.780 ,2,1,0.,12.0,0.,12.0,0.,12.0,0.,12.0
1981-08-24 06:08:49.780 ,1,1,0.,12.0,0.,12.0,0.,12.0,0.,12.0
1981-08-24 06:09:01.780 ,1,1,0.,12.0,0.,12.0,0.,12.0,0.,12.0
1981-08-24 06:09:13.780 ,0,1,0.,12.0,0.,12.0,0.,12.0,0.,12.0
1981-08-24 06:09:25.780 ,0,1,0.,12.0,0.,12.0,0.,12.0,0.,12.0
1981-08-24 06:09:37.780 ,0,1,0.,12.0,0.,12.0,0.,12.0,0.,12.0
1981-08-24 06:09:49.780 ,0,1,0.,12.0,0.,12.0,0.,12.0,0.,12.0
1981-08-24 06:10:01.780 ,1,1,0.,12.0,0.,12.0,0.,12.0,0.,12.0
1981-08-24 06:10:13.780 ,1,1,0.,12.0,0.,12.0,0.,12.0,0.,12.0
1981-08-24 06:10:25.780 ,2,1,0.,12.0,0.,12.0,0.,12.0,0.,12.0
1981-08-24 06:10:37.780 ,2,1,0.,12.0,0.,12.0,0.,12.0,0.,12.0
1981-08-24 06:10:49.780 ,0,0,0.,12.0,0.,12.0,0.,12.0,0.,12.0
1981-08-24 06:11:01.780 ,0,0,0.,12.0,0.,12.0,0.,12.0,0.,12.0
1981-08-24 06:15:35.980 ,0,0,,0,,0,,0,,0
1981-08-24 06:15:47.980 ,0,0,,0,,0,,0,,0
1981-08-24 06:15:37.780 ,0,0,0.,12.0,0.,12.0,0.,12.0,0.,12.0
1981-08-24 06:15:49.780 ,0,0,0.,12.0,0.,12.0,0.,12.0,0.,12.0
1981-08-24 06:16:01.780 ,3,1,0.,12.0,0.,12.0,0.,12.0,0.,12.0
1981-08-24 06:16:13.780 ,3,1,0.,12.0,0.,12.0,0.,12.0,0.,12.0
1981-08-24 06:16:25.780 ,0,0,0.,12.0,0.,12.0,0.,12.0,0.,12.0
1981-08-24 06:16:37.780 ,0,0,0.,12.0,0.,12.0,0.,12.0,0.,12.0
1981-08-24 06:30:25.770 ,4,1,0.,12.0,0.,12.0,0.,12.0,0.,12.0
1981-08-24 06:30:37.770 ,4,1,0.,12.0,0.,12.0,0.,12.0,0.,12.0
1981-08-24 06:30:49.770 ,5,1,0.,12.0,0.,12.0,0.,12.0,0.,12.0
1981-08-24 06:31:01.770 ,5,1,0.,12.0,0.,12.0,0.,12.0,0.,12.0
1981-08-24 06:31:13.770 ,6,1,0.,12.0,0.,12.0,0.,12.0,0.,12.0
1981-08-24 06:31:25.770 ,6,1,0.,12.0,0.,12.0,0.,12.0,0.,12.0
1981-08-24 06:31:37.770 ,7,1,0.,12.0,0.,12.0,0.,12.0,0.,12.0
1981-08-24 06:31:49.770 ,7,1,0.,12.0,0.,12.0,0.,12.0,0.,12.0
1981-08-24 06:32:01.770 ,7,1,0.,12.0,0.,12.0,0.,12.0,0.,12.0
1981-08-24 06:32:13.770 ,7,1,0.,12.0,0.,12.0,0.,12.0,0.,12.0
1981-08-24 06:32:25.770 ,7,0,0.,12.0,0.,12.0,0.,12.0,0.,12.0
1981-08-24 06:32:37.770 ,7,0,0.,12.0,0.,12.0,0.,12.0,0.,12.0
1981-08-24 06:32:49.770 ,6,1,0.,12.0,0.,12.0,0.,12.0,0.,12.0
1981-08-24 06:33:01.770 ,6,1,0.,12.0,0.,12.0,0.,12.0,0.,12.0
1981-08-24 06:33:13.770 ,6,0,0.,12.0,0.,12.0,0.,12.0,0.,12.0
1981-08-24 06:33:25.770 ,6,0,0.,12.0,0.,12.0,0.,12.0,0.,12.0
1981-08-24 06:33:37.770 ,5,1,0.,12.0,0.,12.0,0.,12.0,0.,12.0
1981-08-24 06:33:49.770 ,5,1,0.,12.0,0.,12.0,0.,12.0,0.,12.0
1981-08-24 06:34:01.770 ,5,0,0.,12.0,0.,12.0,0.,12.0,0.,12.0
1981-08-24 06:34:13.770 ,5,0,0.,12.0,0.,12.0,0.,12.0,0.,12.0
1981-08-24 06:34:25.770 ,4,1,0.,12.0,0.,12.0,0.,12.0,0.,12.0
1981-08-24 06:34:37.770 ,4,1,0.,12.0,0.,12.0,0.,12.0,0.,12.0
1981-08-24 06:34:49.770 ,4,0,0.,12.0,0.,12.0,0.,12.0,0.,12.0
1981-08-24 06:35:01.770 ,4,0,0.,12.0,0.,12.0,0.,12.0,0.,12.0
1981-08-24 06:35:13.770 ,3,1,0.,12.0,0.,12.0,0.,12.0,0.,12.0
1981-08-24 06:35:25.770 ,3,1,0.,12.0,0.,12.0,0.,12.0,0.,12.0
1981-08-24 06:35:37.770 ,3,0,0.,12.0,0.,12.0,0.,12.0,0.,12.0
1981-08-24 06:35:49.770 ,3,0,0.,12.0,0.,12.0,0.,12.0,0.,12.0
1981-08-24 06:36:01.770 ,2,1,0.,12.0,0.,12.0,0.,12.0,0.,12.0
1981-08-24 06:36:13.770 ,2,1,0.,12.0,0.,12.0,0.,12.0,0.,12.0
1981-08-24 06:36:25.770 ,2,0,0.,12.0,0.,12.0,0.,12.0,0.,12.0
1981-08-24 06:36:37.770 ,2,0,0.,12.0,0.,12.0,0.,12.0,0.,12.0
1981-08-24 06:36:49.770 ,1,1,0.,12.0,0.,12.0,0.,12.0,0.,12.0
1981-08-24 06:37:01.770 ,1,1,0.,12.0,0.,12.0,0.,12.0,0.,12.0
1981-08-24 06:37:13.770 ,1,0,0.,12.0,0.,12.0,0.,12.0,0.,12.0
1981-08-24 06:37:25.770 ,1,0,0.,12.0,0.,12.0,0.,12.0,0.,12.0
1981-08-24 06:37:37.770 ,0,1,0.,12.0,0.,12.0,0.,12.0,0.,12.0
1981-08-24 06:37:49.770 ,0,1,0.,12.0,0.,12.0,0.,12.0,0.,12.0
1981-08-24 06:38:01.770 ,0,0,0.,12.0,0.,12.0,0.,12.0,0.,12.0
1981-08-24 06:38:13.770 ,0,0,0.,12.0,0.,12.0,0.,12.0,0.,12.0
1981-08-24 06:38:25.770 ,0,1,0.,12.0,0.,12.0,0.,12.0,0.,12.0
1981-08-24 06:38:37.770 ,0,1,0.,12.0,0.,12.0,0.,12.0,0.,12.0
1981-08-24 06:38:49.770 ,0,0,0.,12.0,0.,12.0,0.,12.0,0.,12.0
1981-08-24 06:39:01.770 ,0,0,0.,12.0,0.,12.0,0.,12.0,0.,12.0
1981-08-24 06:39:13.770 ,1,1,0.,12.0,0.,12.0,0.,12.0,0.,12.0
1981-08-24 06:39:25.770 ,1,1,0.,12.0,0.,12.0,0.,12.0,0.,12.0
1981-08-24 06:39:37.770 ,1,0,0.,12.0,0.,12.0,0.,12.0,0.,12.0
1981-08-24 06:39:49.770 ,1,0,0.,12.0,0.,12.0,0.,12.0,0.,12.0
1981-08-24 06:40:01.770 ,2,1,0.,12.0,0.,12.0,0.,12.0,0.,12.0
1981-08-24 06:40:13.770 ,2,1,0.,12.0,0.,12.0,0.,12.0,0.,12.0
1981-08-24 06:40:25.770 ,2,0,0.,12.0,0.,12.0,0.,12.0,0.,12.0
1981-08-24 06:40:37.770 ,2,0,0.,12.0,0.,12.0,0.,12.0,0.,12.0
1981-08-24 06:40:49.770 ,3,1,0.,12.0,0.,12.0,0.,12.0,0.,12.0
1981-08-24 06:41:01.770 ,3,1,0.,12.0,0.,12.0,0.,12.0,0.,12.0
1981-08-24 06:41:13.770 ,3,0,0.,12.0,0.,12.0,0.,12.0,0.,12.0
1981-08-24 06:41:25.770 ,3,0,0.,12.0,0.,12.0,0.,12.0,0.,12.0
1981-08-24 06:41:37.770 ,4,1,0.,12.0,0.,12.0,0.,12.0,0.,12.0
1981-08-24 06:41:49.770 ,4,1,0.,12.0,0.,12.0,0.,12.0,0.,12.0
1981-08-24 06:42:01.770 ,0,0,0.,12.0,0.,12.0,0.,12.0,0.,12.0
1981-08-24 06:42:13.770 ,0,0,0.,12.0,0.,12.0,0.,12.0,0.,12.0
1981-08-24 06:42:29.970 ,0,0,,0,,0,,0,,0
1981-08-24 06:42:41.970 ,0,0,0.,12.0,0.,12.0,0.,12.0,0.,12.0
1981-08-24 06:42:49.770 ,0,0,0.,12.0,0.,12.0,0.,12.0,0.,12.0
1981-08-24 06:43:01.770 ,0,0,0.,12.0,0.,12.0,0.,12.0,0.,12.0
1981-08-24 06:43:13.770 ,6,1,0.,12.0,0.,12.0,0.,12.0,0.,12.0
1981-08-24 06:43:25.770 ,6,1,0.,12.0,0.,12.0,0.,12.0,0.,12.0
1981-08-24 06:43:37.770 ,6,0,0.,12.0,0.,12.0,0.,12.0,0.,12.0
1981-08-24 06:43:49.770 ,6,0,0.,12.0,0.,12.0,0.,12.0,0.,12.0
1981-08-24 06:44:01.770 ,7,1,0.,12.0,0.,12.0,0.,12.0,0.,12.0
1981-08-24 06:44:13.770 ,7,1,0.,12.0,0.,12.0,0.,12.0,0.,12.0
1981-08-24 06:44:25.770 ,7,0,0.,12.0,0.,12.0,0.,12.0,0.,12.0
1981-08-24 06:44:37.770 ,7,0,0.,12.0,0.,12.0,0.,12.0,0.,12.0
1981-08-24 06:44:49.770 ,7,1,0.,12.0,0.,12.0,0.,12.0,0.,12.0
1981-08-24 06:45:01.770 ,7,1,0.,12.0,0.,12.0,0.,12.0,0.,12.0
1981-08-24 06:45:13.770 ,6,1,0.,12.0,0.,12.0,0.,12.0,0.,12.0
1981-08-24 06:45:25.770 ,6,1,0.,12.0,0.,12.0,0.,12.0,0.,12.0
1981-08-24 06:45:37.770 ,5,1,0.,12.0,0.,12.0,0.,12.0,0.,12.0
1981-08-24 06:45:49.770 ,5,1,0.,12.0,0.,12.0,0.,12.0,0.,12.0
1981-08-24 06:46:01.770 ,4,1,0.,12.0,0.,12.0,0.,12.0,0.,12.0
1981-08-24 06:46:13.770 ,4,1,0.,12.0,0.,12.0,0.,12.0,0.,12.0
1981-08-24 06:46:25.770 ,3,1,0.,12.0,0.,12.0,0.,12.0,0.,12.0
1981-08-24 06:46:37.770 ,3,1,0.,12.0,0.,12.0,0.,12.0,0.,12.0
1981-08-24 06:46:49.770 ,2,1,0.,12.0,0.,12.0,0.,12.0,0.,12.0
1981-08-24 06:47:01.770 ,2,1,0.,12.0,0.,12.0,0.,12.0,0.,12.0
1981-08-24 06:47:13.770 ,1,1,0.,12.0,0.,12.0,0.,12.0,0.,12.0
1981-08-24 06:47:25.770 ,1,1,0.,12.0,0.,12.0,0.,12.0,0.,12.0
1981-08-24 06:47:37.770 ,0,1,0.,12.0,0.,12.0,0.,12.0,0.,12.0
1981-08-24 06:47:49.770 ,0,1,0.,12.0,0.,12.0,0.,12.0,0.,12.0
1981-08-24 06:48:01.770 ,0,1,0.,12.0,0.,12.0,0.,12.0,0.,12.0
1981-08-24 06:48:13.770 ,0,1,0.,12.0,0.,12.0,0.,12.0,0.,12.0
1981-08-24 06:48:25.770 ,1,1,0.,12.0,0.,12.0,0.,12.0,0.,12.0
1981-08-24 06:48:37.770 ,1,1,0.,12.0,0.,12.0,0.,12.0,0.,12.0
1981-08-24 06:48:49.770 ,2,1,0.,12.0,0.,12.0,0.,12.0,0.,12.0
1981-08-24 06:49:01.770 ,2,1,0.,12.0,0.,12.0,0.,12.0,0.,12.0
1981-08-24 06:49:13.770 ,3,1,0.,12.0,0.,12.0,0.,12.0,0.,12.0
1981-08-24 06:49:25.770 ,3,1,0.,12.0,0.,12.0,0.,12.0,0.,12.0
1981-08-24 06:49:37.770 ,4,1,0.,12.0,0.,12.0,0.,12.0,0.,12.0
1981-08-24 06:49:49.770 ,4,1,0.,12.0,0.,12.0,0.,12.0,0.,12.0
1981-08-24 06:50:01.770 ,5,1,0.,12.0,0.,12.0,0.,12.0,0.,12.0
1981-08-24 06:50:13.770 ,5,1,0.,12.0,0.,12.0,0.,12.0,0.,12.0
1981-08-24 06:50:25.770 ,6,1,0.,12.0,0.,12.0,0.,12.0,0.,12.0
1981-08-24 06:50:37.770 ,6,1,0.,12.0,0.,12.0,0.,12.0,0.,12.0
1981-08-24 06:50:49.770 ,7,1,0.,12.0,0.,12.0,0.,12.0,0.,12.0
1981-08-24 06:51:01.770 ,7,1,0.,12.0,0.,12.0,0.,12.0,0.,12.0
1981-08-24 06:51:13.770 ,7,1,0.,12.0,0.,12.0,0.,12.0,0.,12.0
1981-08-24 06:51:25.770 ,7,1,0.,12.0,0.,12.0,0.,12.0,0.,12.0
1981-08-24 06:51:37.770 ,7,0,0.,12.0,0.,12.0,0.,12.0,0.,12.0
1981-08-24 06:51:49.770 ,7,0,0.,12.0,0.,12.0,0.,12.0,0.,12.0
1981-08-24 06:52:01.770 ,6,1,0.,12.0,0.,12.0,0.,12.0,0.,12.0
1981-08-24 06:52:13.770 ,6,1,0.,12.0,0.,12.0,0.,12.0,0.,12.0
1981-08-24 06:52:25.770 ,6,0,0.,12.0,0.,12.0,0.,12.0,0.,12.0
1981-08-24 06:52:37.770 ,6,0,0.,12.0,0.,12.0,0.,12.0,0.,12.0
1981-08-24 06:52:49.770 ,5,1,0.,12.0,0.,12.0,0.,12.0,0.,12.0
1981-08-24 06:53:01.770 ,5,1,0.,12.0,0.,12.0,0.,12.0,0.,12.0
1981-08-24 06:53:13.770 ,5,0,0.,12.0,0.,12.0,0.,12.0,0.,12.0
1981-08-24 06:53:25.770 ,5,0,0.,12.0,0.,12.0,0.,12.0,0.,12.0
1981-08-24 06:53:37.770 ,4,1,0.,12.0,0.,12.0,0.,12.0,0.,12.0
1981-08-24 06:53:49.770 ,4,1,0.,12.0,0.,12.0,0.,12.0,0.,12.0
1981-08-24 06:54:01.770 ,4,0,0.,12.0,0.,12.0,0.,12.0,0.,12.0
1981-08-24 06:54:13.770 ,4,0,0.,12.0,0.,12.0,0.,12.0,0.,12.0
1981-08-24 06:54:25.770 ,3,1,0.,12.0,0.,12.0,0.,12.0,0.,12.0
1981-08-24 06:54:37.770 ,3,1,0.,12.0,0.,12.0,0.,12.0,0.,12.0
1981-08-24 06:54:49.770 ,3,0,0.,12.0,0.,12.0,0.,12.0,0.,12.0
1981-08-24 06:55:01.770 ,3,0,0.,12.0,0.,12.0,0.,12.0,0.,12.0
1981-08-24 06:55:13.770 ,2,1,0.,12.0,0.,12.0,0.,12.0,0.,12.0
1981-08-24 06:55:25.770 ,2,1,0.,12.0,0.,12.0,0.,12.0,0.,12.0
1981-08-24 06:55:37.770 ,2,0,0.,12.0,0.,12.0,0.,12.0,0.,12.0
1981-08-24 06:55:49.770 ,2,0,0.,12.0,0.,12.0,0.,12.0,0.,12.0
1981-08-24 06:56:01.770 ,1,1,0.,12.0,0.,12.0,0.,12.0,0.,12.0
1981-08-24 06:56:13.770 ,1,1,0.,12.0,0.,12.0,0.,12.0,0.,12.0
1981-08-24 06:56:25.770 ,1,0,0.,12.0,0.,12.0,0.,12.0,0.,12.0
1981-08-24 06:56:37.770 ,1,0,0.,12.0,0.,12.0,0.,12.0,0.,12.0
1981-08-24 06:56:49.770 ,0,1,0.,12.0,0.,12.0,0.,12.0,0.,12.0
1981-08-24 06:57:01.770 ,0,1,0.,12.0,0.,12.0,0.,12.0,0.,12.0
1981-08-24 06:57:13.770 ,0,0,0.,12.0,0.,12.0,0.,12.0,0.,12.0
1981-08-24 06:57:25.770 ,0,0,0.,12.0,0.,12.0,0.,12.0,0.,12.0
1981-08-24 06:57:37.770 ,0,1,0.,12.0,0.,12.0,0.,12.0,0.,12.0
1981-08-24 06:57:49.770 ,0,1,0.,12.0,0.,12.0,0.,12.0,0.,12.0
1981-08-24 06:58:01.770 ,0,0,0.,12.0,0.,12.0,0.,12.0,0.,12.0
1981-08-24 06:58:13.770 ,0,0,0.,12.0,0.,12.0,0.,12.0,0.,12.0
1981-08-24 06:58:25.770 ,1,1,0.,12.0,0.,12.0,0.,12.0,0.,12.0
1981-08-24 06:58:37.770 ,1,1,0.,12.0,0.,12.0,0.,12.0,0.,12.0
1981-08-24 06:58:49.770 ,1,0,0.,12.0,0.,12.0,0.,12.0,0.,12.0
1981-08-24 06:59:01.770 ,1,0,0.,12.0,0.,12.0,0.,12.0,0.,12.0
1981-08-24 06:59:13.770 ,2,1,0.,12.0,0.,12.0,0.,12.0,0.,12.0
1981-08-24 06:59:25.770 ,2,1,0.,12.0,0.,12.0,0.,12.0,0.,12.0
1981-08-24 06:59:37.770 ,2,0,0.,12.0,0.,12.0,0.,12.0,0.,12.0
1981-08-24 06:59:49.770 ,2,0,0.,12.0,0.,12.0,0.,12.0,0.,12.0
1981-08-24 07:00:01.770 ,3,1,0.,12.0,0.,12.0,0.,12.0,0.,12.0
1981-08-24 07:00:13.770 ,3,1,0.,12.0,0.,12.0,0.,12.0,0.,12.0
1981-08-24 07:00:25.770 ,3,0,0.,12.0,0.,12.0,0.,12.0,0.,12.0
1981-08-24 07:00:37.770 ,3,0,0.,12.0,0.,12.0,0.,12.0,0.,12.0
1981-08-24 07:00:49.770 ,4,1,0.,12.0,0.,12.0,0.,12.0,0.,12.0
1981-08-24 07:01:01.770 ,4,1,0.,12.0,0.,12.0,0.,12.0,0.,12.0
1981-08-24 07:01:13.770 ,4,0,0.,12.0,0.,12.0,0.,12.0,0.,12.0
1981-08-24 07:01:25.770 ,4,0,0.,12.0,0.,12.0,0.,12.0,0.,12.0
1981-08-24 07:01:37.770 ,5,1,0.,12.0,0.,12.0,0.,12.0,0.,12.0
1981-08-24 07:01:49.770 ,5,1,0.,12.0,0.,12.0,0.,12.0,0.,12.0
1981-08-24 07:02:01.770 ,5,0,0.,12.0,0.,12.0,0.,12.0,0.,12.0
1981-08-24 07:02:13.770 ,5,0,0.,12.0,0.,12.0,0.,12.0,0.,12.0
1981-08-24 07:02:25.770 ,6,1,0.,12.0,0.,12.0,0.,12.0,0.,12.0
1981-08-24 07:02:37.770 ,6,1,0.,12.0,0.,12.0,0.,12.0,0.,12.0
1981-08-24 07:02:49.770 ,6,0,0.,12.0,0.,12.0,0.,12.0,0.,12.0
1981-08-24 07:03:01.770 ,6,0,0.,12.0,0.,12.0,0.,12.0,0.,12.0
1981-08-24 07:03:13.770 ,7,1,0.,12.0,0.,12.0,0.,12.0,0.,12.0
1981-08-24 07:03:25.770 ,7,1,0.,12.0,0.,12.0,0.,12.0,0.,12.0
1981-08-24 07:03:37.770 ,7,0,0.,12.0,0.,12.0,0.,12.0,0.,12.0
1981-08-24 07:03:49.770 ,7,0,0.,12.0,0.,12.0,0.,12.0,0.,12.0
1981-08-24 07:04:01.770 ,7,1,0.,12.0,0.,12.0,0.,12.0,0.,12.0
1981-08-24 07:04:13.770 ,7,1,0.,12.0,0.,12.0,0.,12.0,0.,12.0
1981-08-24 07:04:25.770 ,6,1,0.,12.0,0.,12.0,0.,12.0,0.,12.0
1981-08-24 07:04:37.770 ,6,1,0.,12.0,0.,12.0,0.,12.0,0.,12.0
1981-08-24 07:04:49.770 ,5,1,0.,12.0,0.,12.0,0.,12.0,0.,12.0
1981-08-24 07:05:01.770 ,5,1,0.,12.0,0.,12.0,0.,12.0,0.,12.0
1981-08-24 07:05:13.770 ,4,1,0.,12.0,0.,12.0,0.,12.0,0.,12.0
1981-08-24 07:05:25.770 ,4,1,0.,12.0,0.,12.0,0.,12.0,0.,12.0
1981-08-24 07:05:37.770 ,3,1,0.,12.0,0.,12.0,0.,12.0,0.,12.0
1981-08-24 07:05:49.770 ,3,1,0.,12.0,0.,12.0,0.,12.0,0.,12.0
1981-08-24 07:06:01.770 ,2,1,0.,12.0,0.,12.0,0.,12.0,0.,12.0
1981-08-24 07:06:13.770 ,2,1,0.,12.0,0.,12.0,0.,12.0,0.,12.0
1981-08-24 07:06:25.770 ,1,1,0.,12.0,0.,12.0,0.,12.0,0.,12.0
1981-08-24 07:06:37.770 ,1,1,0.,12.0,0.,12.0,0.,12.0,0.,12.0
1981-08-24 07:06:49.770 ,0,1,0.,12.0,0.,12.0,0.,12.0,0.,12.0
1981-08-24 07:07:01.770 ,0,1,0.,12.0,0.,12.0,0.,12.0,0.,12.0
1981-08-24 07:07:13.770 ,0,1,0.,12.0,0.,12.0,0.,12.0,0.,12.0
1981-08-24 07:07:25.770 ,0,1,0.,12.0,0.,12.0,0.,12.0,0.,12.0
1981-08-24 07:07:37.770 ,1,1,0.,12.0,0.,12.0,0.,12.0,0.,12.0
1981-08-24 07:07:49.770 ,1,1,0.,12.0,0.,12.0,0.,12.0,0.,12.0
1981-08-24 07:08:01.770 ,2,1,0.,12.0,0.,12.0,0.,12.0,0.,12.0
1981-08-24 07:08:13.770 ,2,1,0.,12.0,0.,12.0,0.,12.0,0.,12.0
1981-08-24 07:08:25.770 ,3,1,0.,12.0,0.,12.0,0.,12.0,0.,12.0
1981-08-24 07:08:37.770 ,3,1,0.,12.0,0.,12.0,0.,12.0,0.,12.0
1981-08-24 07:08:49.770 ,4,1,0.,12.0,0.,12.0,0.,12.0,0.,12.0
1981-08-24 07:09:01.770 ,4,1,0.,12.0,0.,12.0,0.,12.0,0.,12.0
1981-08-24 07:09:13.770 ,5,1,0.,12.0,0.,12.0,0.,12.0,0.,12.0
1981-08-24 07:09:25.770 ,5,1,0.,12.0,0.,12.0,0.,12.0,0.,12.0
1981-08-24 07:09:37.770 ,6,1,0.,12.0,0.,12.0,0.,12.0,0.,12.0
1981-08-24 07:09:49.770 ,6,1,0.,12.0,0.,12.0,0.,12.0,0.,12.0
1981-08-24 07:10:01.770 ,7,1,0.,12.0,0.,12.0,0.,12.0,0.,12.0
1981-08-24 07:10:13.770 ,7,1,0.,12.0,0.,12.0,0.,12.0,0.,12.0
1981-08-24 07:10:25.770 ,7,1,0.,12.0,0.,12.0,0.,12.0,0.,12.0
1981-08-24 07:10:37.770 ,7,1,0.,12.0,0.,12.0,0.,12.0,0.,12.0
1981-08-24 07:10:49.770 ,0,0,0.,12.0,0.,12.0,0.,12.0,0.,12.0
1981-08-24 07:11:01.770 ,0,0,0.,12.0,0.,12.0,0.,12.0,0.,12.0
1981-08-24 07:53:32.370 ,0,0,,0,,0,,0,,0
1981-08-24 07:53:44.370 ,0,0,,0,,0,,0,,0
1981-08-24 07:53:41.970 ,0,0,,0,,0,,0,,0
1981-08-24 07:53:53.970 ,0,0,0.,12.0,0.,12.0,0.,12.0,0.,12.0
1981-08-24 07:54:01.770 ,0,0,1.,12.0,0.,12.0,0.,12.0,0.,12.0
1981-08-24 07:54:13.770 ,0,0,0.,12.0,0.,12.0,0.,12.0,0.,12.0
1981-08-24 07:54:25.770 ,0,1,0.,12.0,0.,12.0,0.,12.0,0.,12.0
1981-08-24 07:54:37.770 ,0,1,0.,12.0,0.,12.0,0.,12.0,0.,12.0
1981-08-24 07:54:49.770 ,0,0,0.,12.0,0.,12.0,0.,12.0,0.,12.0
1981-08-24 07:55:01.770 ,0,0,0.,12.0,0.,12.0,0.,12.0,0.,12.0
1981-08-24 07:55:13.770 ,0,1,0.,12.0,0.,12.0,0.,12.0,0.,12.0
1981-08-24 07:55:25.770 ,0,1,0.,12.0,0.,12.0,0.,12.0,0.,12.0
1981-08-24 07:55:37.770 ,0,0,0.,12.0,0.,12.0,0.,12.0,0.,12.0
1981-08-24 07:55:49.770 ,0,0,0.,12.0,0.,12.0,0.,12.0,0.,12.0
1981-08-24 07:56:01.770 ,1,1,0.,12.0,0.,12.0,0.,12.0,0.,12.0
1981-08-24 07:56:13.770 ,1,1,0.,12.0,0.,12.0,0.,12.0,0.,12.0
1981-08-24 07:56:25.770 ,1,0,0.,12.0,0.,12.0,0.,12.0,0.,12.0
1981-08-24 07:56:37.770 ,1,0,0.,12.0,0.,12.0,0.,12.0,0.,12.0
1981-08-24 07:56:49.770 ,2,1,0.,12.0,0.,12.0,0.,12.0,0.,12.0
1981-08-24 07:57:01.770 ,2,1,0.,12.0,0.,12.0,0.,12.0,0.,12.0
1981-08-24 07:57:13.770 ,2,0,0.,12.0,0.,12.0,0.,12.0,0.,12.0
1981-08-24 07:57:25.770 ,2,0,0.,12.0,0.,12.0,0.,12.0,0.,12.0
1981-08-24 07:57:37.770 ,3,1,0.,12.0,0.,12.0,0.,12.0,0.,12.0
1981-08-24 07:57:49.770 ,3,1,0.,12.0,0.,12.0,0.,12.0,0.,12.0
1981-08-24 07:58:01.770 ,3,0,0.,12.0,0.,12.0,0.,12.0,0.,12.0
1981-08-24 07:58:13.770 ,3,0,0.,12.0,0.,12.0,0.,12.0,0.,12.0
1981-08-24 07:58:25.770 ,4,1,0.,12.0,0.,12.0,0.,12.0,0.,12.0
1981-08-24 07:58:37.770 ,4,1,0.,12.0,0.,12.0,0.,12.0,0.,12.0
1981-08-24 07:58:49.770 ,4,0,0.,12.0,0.,12.0,0.,12.0,0.,12.0
1981-08-24 07:59:01.770 ,4,0,0.,12.0,0.,12.0,0.,12.0,0.,12.0
1981-08-24 07:59:13.770 ,5,1,0.,12.0,0.,12.0,0.,12.0,0.,12.0
1981-08-24 07:59:25.770 ,5,1,0.,12.0,0.,12.0,0.,12.0,0.,12.0
1981-08-24 07:59:37.770 ,5,0,0.,12.0,0.,12.0,0.,12.0,0.,12.0
1981-08-24 07:59:49.770 ,5,0,0.,12.0,0.,12.0,0.,12.0,0.,12.0
1981-08-24 08:00:01.770 ,6,1,0.,12.0,0.,12.0,0.,12.0,0.,12.0
1981-08-24 08:00:13.770 ,6,1,0.,12.0,0.,12.0,0.,12.0,0.,12.0
1981-08-24 08:00:25.770 ,6,0,0.,12.0,0.,12.0,0.,12.0,0.,12.0
1981-08-24 08:00:37.770 ,6,0,0.,12.0,0.,12.0,0.,12.0,0.,12.0
1981-08-24 08:00:49.770 ,7,1,0.,12.0,0.,12.0,0.,12.0,0.,12.0
1981-08-24 08:01:01.770 ,7,1,0.,12.0,0.,12.0,0.,12.0,0.,12.0
1981-08-24 08:01:13.770 ,7,0,0.,12.0,0.,12.0,0.,12.0,0.,12.0
1981-08-24 08:01:25.770 ,7,0,0.,12.0,0.,12.0,0.,12.0,0.,12.0
1981-08-24 08:01:37.770 ,7,1,0.,12.0,0.,12.0,0.,12.0,0.,12.0
1981-08-24 08:01:49.770 ,7,1,0.,12.0,0.,12.0,0.,12.0,0.,12.0
1981-08-24 08:02:01.770 ,6,1,0.,12.0,0.,12.0,0.,12.0,0.,12.0
1981-08-24 08:02:13.770 ,6,1,0.,12.0,0.,12.0,0.,12.0,0.,12.0
1981-08-24 08:02:25.770 ,5,1,0.,12.0,0.,12.0,0.,12.0,0.,12.0
1981-08-24 08:02:37.770 ,5,1,0.,12.0,0.,12.0,0.,12.0,0.,12.0
1981-08-24 08:02:49.770 ,4,1,0.,12.0,0.,12.0,0.,12.0,0.,12.0
1981-08-24 08:03:01.770 ,4,1,0.,12.0,0.,12.0,0.,12.0,0.,12.0
1981-08-24 08:03:13.770 ,3,1,0.,12.0,0.,12.0,0.,12.0,0.,12.0
1981-08-24 08:03:25.770 ,3,1,0.,12.0,0.,12.0,0.,12.0,0.,12.0
1981-08-24 08:03:37.770 ,2,1,0.,12.0,0.,12.0,0.,12.0,0.,12.0
1981-08-24 08:03:49.770 ,2,1,0.,12.0,0.,12.0,0.,12.0,0.,12.0
1981-08-24 08:04:49.770 ,0,0,0.,12.0,0.,12.0,0.,12.0,0.,12.0
1981-08-24 08:05:01.770 ,0,0,0.,12.0,0.,12.0,0.,12.0,0.,12.0
1981-08-24 08:05:13.770 ,1,1,0.,12.0,0.,12.0,0.,12.0,0.,12.0
1981-08-24 08:05:25.770 ,1,1,0.,12.0,0.,12.0,0.,12.0,0.,12.0
1981-08-24 08:05:37.770 ,2,1,0.,12.0,0.,12.0,0.,12.0,0.,12.0
1981-08-24 08:05:49.770 ,2,1,0.,12.0,0.,12.0,0.,12.0,0.,12.0
1981-08-24 08:06:01.770 ,3,1,0.,12.0,0.,12.0,0.,12.0,0.,12.0
1981-08-24 08:06:13.770 ,3,1,0.,12.0,0.,12.0,0.,12.0,0.,12.0
1981-08-24 08:06:25.770 ,4,1,0.,12.0,0.,12.0,0.,12.0,0.,12.0
1981-08-24 08:06:37.770 ,4,1,0.,12.0,0.,12.0,0.,12.0,0.,12.0
1981-08-24 08:06:49.770 ,5,1,0.,12.0,0.,12.0,0.,12.0,0.,12.0
1981-08-24 08:07:01.770 ,5,1,0.,12.0,0.,12.0,0.,12.0,0.,12.0
1981-08-24 08:07:13.770 ,6,1,0.,12.0,0.,12.0,0.,12.0,0.,12.0
1981-08-24 08:07:25.770 ,6,1,0.,12.0,0.,12.0,0.,12.0,0.,12.0
1981-08-24 08:07:37.770 ,7,1,0.,12.0,0.,12.0,0.,12.0,0.,12.0
1981-08-24 08:07:49.770 ,7,1,0.,12.0,0.,12.0,0.,12.0,0.,12.0
1981-08-24 08:08:01.770 ,7,1,0.,12.0,0.,12.0,0.,12.0,0.,12.0
1981-08-24 08:08:13.770 ,7,1,0.,12.0,0.,12.0,0.,12.0,0.,12.0
1981-08-24 08:08:25.770 ,7,0,0.,12.0,0.,12.0,0.,12.0,0.,12.0
1981-08-24 08:08:37.770 ,7,0,0.,12.0,0.,12.0,0.,12.0,0.,12.0
1981-08-24 08:08:49.770 ,6,1,0.,12.0,0.,12.0,0.,12.0,0.,12.0
1981-08-24 08:09:01.770 ,6,1,0.,12.0,0.,12.0,0.,12.0,0.,12.0
1981-08-24 08:09:13.770 ,6,0,0.,12.0,0.,12.0,0.,12.0,0.,12.0
1981-08-24 08:09:25.770 ,6,0,0.,12.0,0.,12.0,0.,12.0,0.,12.0
1981-08-24 08:09:37.770 ,5,1,0.,12.0,0.,12.0,0.,12.0,0.,12.0
1981-08-24 08:09:49.770 ,5,1,0.,12.0,0.,12.0,0.,12.0,0.,12.0
1981-08-24 08:10:01.770 ,5,0,0.,12.0,0.,12.0,0.,12.0,0.,12.0
1981-08-24 08:10:13.770 ,5,0,0.,12.0,0.,12.0,0.,12.0,0.,12.0
1981-08-24 08:10:25.770 ,4,1,0.,12.0,0.,12.0,0.,12.0,0.,12.0
1981-08-24 08:10:37.770 ,4,1,0.,12.0,0.,12.0,0.,12.0,0.,12.0
1981-08-24 08:10:49.770 ,4,0,0.,12.0,0.,12.0,0.,12.0,0.,12.0
1981-08-24 08:11:01.770 ,4,0,0.,12.0,0.,12.0,0.,12.0,0.,12.0
1981-08-24 08:11:13.770 ,3,1,0.,12.0,0.,12.0,0.,12.0,0.,12.0
1981-08-24 08:11:25.770 ,3,1,0.,12.0,0.,12.0,0.,12.0,0.,12.0
1981-08-24 08:11:37.770 ,0,0,0.,12.0,0.,12.0,0.,12.0,0.,12.0
1981-08-24 08:11:49.770 ,0,0,0.,12.0,0.,12.0,0.,12.0,0.,12.0
1981-08-24 08:11:55.170 ,0,0,,0,,0,,0,,0
1981-08-24 08:12:07.170 ,0,0,,0,,0,,0,,0
1981-08-24 08:12:01.770 ,2,1,0.,12.0,0.,12.0,0.,12.0,0.,12.0
1981-08-24 08:12:13.770 ,2,1,0.,12.0,0.,12.0,0.,12.0,0.,12.0
1981-08-24 08:12:25.770 ,2,0,0.,12.0,0.,12.0,0.,12.0,0.,12.0
1981-08-24 08:12:37.770 ,2,0,0.,12.0,0.,12.0,0.,12.0,0.,12.0
1981-08-24 08:12:49.770 ,1,1,0.,12.0,0.,12.0,0.,12.0,0.,12.0
1981-08-24 08:13:01.770 ,1,1,0.,12.0,0.,12.0,0.,12.0,0.,12.0
1981-08-24 08:13:13.770 ,1,0,0.,12.0,0.,12.0,0.,12.0,0.,12.0
1981-08-24 08:13:25.770 ,1,0,0.,12.0,0.,12.0,0.,12.0,0.,12.0
1981-08-24 08:13:37.770 ,0,1,0.,12.0,0.,12.0,0.,12.0,0.,12.0
1981-08-24 08:13:49.770 ,0,1,0.,12.0,0.,12.0,0.,12.0,0.,12.0
1981-08-24 08:14:01.770 ,0,0,0.,12.0,0.,12.0,0.,12.0,0.,12.0
1981-08-24 08:14:13.770 ,0,0,0.,12.0,0.,12.0,0.,12.0,0.,12.0
1981-08-24 08:14:25.770 ,0,1,0.,12.0,0.,12.0,0.,12.0,0.,12.0
1981-08-24 08:14:37.770 ,0,1,0.,12.0,0.,12.0,0.,12.0,0.,12.0
1981-08-24 08:14:49.770 ,0,0,0.,12.0,0.,12.0,0.,12.0,0.,12.0
1981-08-24 08:15:01.770 ,0,0,0.,12.0,0.,12.0,0.,12.0,0.,12.0
1981-08-24 08:15:13.770 ,1,1,0.,12.0,0.,12.0,0.,12.0,0.,12.0
1981-08-24 08:15:25.770 ,1,1,0.,12.0,0.,12.0,0.,12.0,0.,12.0
1981-08-24 08:15:37.770 ,1,0,0.,12.0,0.,12.0,0.,12.0,0.,12.0
1981-08-24 08:15:49.770 ,1,0,0.,12.0,0.,12.0,0.,12.0,0.,12.0
1981-08-24 08:16:01.770 ,2,1,0.,12.0,0.,12.0,0.,12.0,0.,12.0
1981-08-24 08:16:13.770 ,2,1,0.,12.0,0.,12.0,0.,12.0,0.,12.0
1981-08-24 08:16:25.770 ,2,0,0.,12.0,0.,12.0,0.,12.0,0.,12.0
1981-08-24 08:16:37.770 ,2,0,0.,12.0,0.,12.0,0.,12.0,0.,12.0
1981-08-24 08:16:49.770 ,3,1,0.,12.0,0.,12.0,0.,12.0,0.,12.0
1981-08-24 08:17:01.770 ,3,1,0.,12.0,0.,12.0,0.,12.0,0.,12.0
1981-08-24 08:17:13.770 ,3,0,0.,12.0,0.,12.0,0.,12.0,0.,12.0
1981-08-24 08:17:25.770 ,3,0,0.,12.0,0.,12.0,0.,12.0,0.,12.0
1981-08-24 08:17:37.770 ,4,1,0.,12.0,0.,12.0,0.,12.0,0.,12.0
1981-08-24 08:17:49.770 ,4,1,0.,12.0,0.,12.0,0.,12.0,0.,12.0
1981-08-24 08:18:01.770 ,4,0,0.,12.0,0.,12.0,0.,12.0,0.,12.0
1981-08-24 08:18:13.770 ,4,0,0.,12.0,0.,12.0,0.,12.0,0.,12.0
1981-08-24 08:18:25.770 ,5,1,0.,12.0,0.,12.0,0.,12.0,0.,12.0
1981-08-24 08:18:37.770 ,5,1,0.,12.0,0.,12.0,0.,12.0,0.,12.0
1981-08-24 08:18:49.770 ,5,0,0.,12.0,0.,12.0,0.,12.0,0.,12.0
1981-08-24 08:19:01.770 ,5,0,0.,12.0,0.,12.0,0.,12.0,0.,12.0
1981-08-24 08:19:13.770 ,6,1,0.,12.0,0.,12.0,0.,12.0,0.,12.0
1981-08-24 08:19:25.770 ,6,1,0.,12.0,0.,12.0,0.,12.0,0.,12.0
1981-08-24 08:19:37.770 ,6,0,0.,12.0,0.,12.0,0.,12.0,0.,12.0
1981-08-24 08:19:49.770 ,6,0,0.,12.0,0.,12.0,0.,12.0,0.,12.0
1981-08-24 08:20:01.770 ,7,1,0.,12.0,0.,12.0,0.,12.0,0.,12.0
1981-08-24 08:20:13.770 ,7,1,0.,12.0,0.,12.0,0.,12.0,0.,12.0
1981-08-24 08:20:25.770 ,7,0,0.,12.0,0.,12.0,0.,12.0,0.,12.0
1981-08-24 08:20:37.770 ,7,0,0.,12.0,0.,12.0,0.,12.0,0.,12.0
1981-08-24 08:20:49.770 ,7,1,0.,12.0,0.,12.0,0.,12.0,0.,12.0
1981-08-24 08:21:01.770 ,7,1,0.,12.0,0.,12.0,0.,12.0,0.,12.0
1981-08-24 08:21:13.770 ,6,1,0.,12.0,0.,12.0,0.,12.0,0.,12.0
1981-08-24 08:21:25.770 ,6,1,0.,12.0,0.,12.0,0.,12.0,0.,12.0
1981-08-24 08:21:37.770 ,5,1,0.,12.0,0.,12.0,0.,12.0,0.,12.0
1981-08-24 08:21:49.770 ,5,1,0.,12.0,0.,12.0,0.,12.0,0.,12.0
1981-08-24 08:22:01.770 ,4,1,0.,12.0,0.,12.0,0.,12.0,0.,12.0
1981-08-24 08:22:13.770 ,4,1,0.,12.0,0.,12.0,0.,12.0,0.,12.0
1981-08-24 08:22:25.770 ,3,1,0.,12.0,0.,12.0,0.,12.0,0.,12.0
1981-08-24 08:22:37.770 ,3,1,0.,12.0,0.,12.0,0.,12.0,0.,12.0
1981-08-24 08:22:49.770 ,2,1,0.,12.0,0.,12.0,0.,12.0,0.,12.0
1981-08-24 08:23:01.770 ,2,1,0.,12.0,0.,12.0,0.,12.0,0.,12.0
1981-08-24 08:23:13.770 ,1,1,0.,12.0,0.,12.0,0.,12.0,0.,12.0
1981-08-24 08:23:25.770 ,1,1,0.,12.0,0.,12.0,0.,12.0,0.,12.0
1981-08-24 08:23:37.770 ,0,1,0.,12.0,0.,12.0,0.,12.0,0.,12.0
1981-08-24 08:23:49.770 ,0,1,0.,12.0,0.,12.0,0.,12.0,0.,12.0